Location: Newark
(54.8972°N, 99.8189°W)
Time: 15:42:49
(UTC+00:00)

Transit 4A - Visible Passes

Search period start: 21 November 2019 00:00
Search period end: 01 December 2019 00:00
Orbit: 869 x 976 km, 66.8° (Epoch: 21 November)

Date Brightness Start Highest point End Pass type
(mag) Time Alt. Az. Time Alt. Az. Time Alt. Az.
21 Nov 10.2 09:04:08 18° NE 09:04:08 18° NE 09:06:04 10° ENE visible
21 Nov 8.7 10:47:40 39° N 10:48:53 44° NNE 10:54:29 10° ESE visible
21 Nov 7.8 12:31:12 18° NW 12:35:33 64° SW 12:41:18 10° SSE visible
22 Nov 10.0 09:13:35 20° NE 09:13:35 20° NE 09:15:51 10° ENE visible
22 Nov 8.4 10:57:06 45° N 10:58:25 53° NE 11:04:08 10° ESE visible
22 Nov 8.1 12:40:39 18° NW 12:44:47 48° WSW 12:50:20 10° SSE visible
23 Nov 9.9 09:23:05 22° ENE 09:23:05 22° ENE 09:25:40 10° ENE visible
23 Nov 8.0 11:06:37 52° NNW 11:07:53 66° NE 11:13:42 10° SE visible
23 Nov 8.5 12:50:09 17° WNW 12:53:56 35° WSW 12:59:08 10° S visible
24 Nov 9.7 09:32:39 24° ENE 09:32:39 24° ENE 09:35:28 10° E visible
24 Nov 7.7 11:16:12 61° NNW 11:17:17 84° NE 11:23:08 10° SE visible
24 Nov 8.8 12:59:44 16° WNW 13:03:02 26° WSW 13:07:43 10° SSW visible
25 Nov 9.6 09:42:18 27° ENE 09:42:18 27° ENE 09:45:15 10° E visible
25 Nov 7.6 11:25:51 65° WNW 11:26:37 76° SW 11:32:26 10° SSE visible
25 Nov 9.2 13:09:24 14° WNW 13:12:03 19° WSW 13:15:56 10° SSW visible
26 Nov 9.5 09:52:01 28° E 09:52:01 28° E 09:54:58 10° ESE visible
26 Nov 7.8 11:35:34 57° WSW 11:35:54 57° WSW 11:41:34 10° SSE visible
26 Nov 9.5 13:19:08 11° W 13:21:00 13° WSW 13:23:31 10° SW visible
27 Nov 9.4 10:01:50 28° ESE 10:01:50 28° ESE 10:04:35 10° ESE visible
27 Nov 8.2 11:45:23 42° SW 11:45:23 42° SW 11:50:31 10° S visible
28 Nov 9.5 10:11:43 26° SE 10:11:43 26° SE 10:14:06 10° SE visible
28 Nov 8.7 11:55:17 29° SW 11:55:17 29° SW 11:59:16 10° S visible
29 Nov 9.6 10:21:42 21° SE 10:21:42 21° SE 10:23:30 10° SE visible
29 Nov 9.3 12:05:16 19° SW 12:05:16 19° SW 12:07:43 10° SSW visible
30 Nov 9.8 01:26:05 10° S 01:27:06 14° SSE 01:27:06 14° SSE visible
30 Nov 9.9 10:31:44 15° SSE 10:31:44 15° SSE 10:32:44 10° SSE visible
30 Nov 9.8 12:15:19 11° SW 12:15:19 11° SW 12:15:46 10° SW visible
